ECHOSTAR 23

Last updated on Thu Oct 30 2025 00:02:50 GMT+0000 (Coordinated Universal Time)

1 42070U 17014A 25302.52950600 -.00000048 00000+0 00000+0 0 9996 2 42070 0.0172 233.1426 0002139 347.4981 258.2267 1.00271397 31610
UTC large
Height (km)
Speed (km/s)
/
Latitude / Longitude
Inclination (degrees)
Orbital Period (minutes)
Azimuth
Elevation
Range (km)
Doppler Factor

Next 0 passes for location: London (51.5072 / 0.1276)

Sorry there are no passes over London.